Location: Glass Lake
(42.6301°N, 73.5309°W)
Time: 10:27:21
(UTC+00:00)

BlueWalker 3 - Pass Details

Date: 07 October 2024
Orbit: 470 x 481 km, 53.2° (Epoch: 11 November)

Event Time Altitude Azimuth Distance (km) Brightness Sun altitude
Exits shadow 10:22:57 - 279° (W) 1,675 3.9 -7.4°
Reaches altitude 10° 10:23:06 10° 280° (W) 1,628 3.9 -7.4°
Maximum altitude 10:26:13 26° 338° (NNW) 968 3.2 -6.8°
Drops below altitude 10° 10:29:21 10° 37° (NE) 1,635 5.1 -6.2°
Sets 10:31:46 0° 50° (NE) 2,516 6.3 -5.8°
